Time,TemperatureF,DewpointF,PressureIn,WindDirection,WindDirectionDegrees,WindSpeedMPH,WindSpeedGustMPH,Humidity,HourlyPrecipIn,Conditions,Clouds,dailyrainin,SoftwareType,DateUTC
2013-12-07 00:00:00,2.2,-3.9,30.78,North,4,3.0,8.0,75,0.00,,CLR,0.00,VWS V14.01,2013-12-07 06:00:00,
2013-12-07 00:05:00,2.1,-4.0,30.78,NNW,329,2.0,3.0,75,0.00,,CLR,0.00,VWS V14.01,2013-12-07 06:05:00,
2013-12-07 00:10:00,2.0,-4.1,30.78,North,354,3.0,6.0,75,0.00,,CLR,0.00,VWS V14.01,2013-12-07 06:10:00,
2013-12-07 00:15:00,2.0,-4.1,30.78,North,4,3.0,5.0,75,0.00,,CLR,0.00,VWS V14.01,2013-12-07 06:15:00,
2013-12-07 00:20:00,1.9,-4.5,30.78,NNW,347,4.0,5.0,74,0.00,,CLR,0.00,VWS V14.01,2013-12-07 06:20:00,
2013-12-07 00:26:00,1.8,-4.6,30.78,North,354,7.0,7.0,74,0.00,,CLR,0.00,VWS V14.01,2013-12-07 06:26:00,
2013-12-07 00:31:00,1.7,-4.7,30.79,NNE,23,6.0,7.0,74,0.00,,CLR,0.00,VWS V14.01,2013-12-07 06:31:00,
2013-12-07 00:36:00,1.6,-4.8,30.79,North,354,4.0,9.0,74,0.00,,CLR,0.00,VWS V14.01,2013-12-07 06:36:00,
2013-12-07 00:41:00,1.4,-4.9,30.79,NNE,15,5.0,7.0,74,0.00,,CLR,0.00,VWS V14.01,2013-12-07 06:41:00,
2013-12-07 00:46:00,1.3,-5.0,30.79,NNE,27,5.0,7.0,74,0.00,,CLR,0.00,VWS V14.01,2013-12-07 06:46:00,
2013-12-07 00:51:00,1.2,-5.1,30.79,NE,34,3.0,5.0,74,0.00,,CLR,0.00,VWS V14.01,2013-12-07 06:51:00,
2013-12-07 00:56:00,1.1,-5.2,30.79,NNE,18,2.0,6.0,74,0.00,,CLR,0.00,VWS V14.01,2013-12-07 06:56:00,
2013-12-07 01:01:00,1.0,-5.1,30.79,NNE,16,4.0,8.0,75,0.00,,CLR,0.00,VWS V14.01,2013-12-07 07:01:00,
2013-12-07 01:06:00,0.9,-5.2,30.79,NE,48,4.0,5.0,75,0.00,,CLR,0.00,VWS V14.01,2013-12-07 07:06:00,
2013-12-07 01:11:00,0.8,-5.2,30.79,NNE,31,1.0,3.0,75,0.00,,CLR,0.00,VWS V14.01,2013-12-07 07:11:00,
2013-12-07 01:16:00,0.7,-5.3,30.79,NNE,21,5.0,6.0,75,0.00,,CLR,0.00,VWS V14.01,2013-12-07 07:16:00,
2013-12-07 01:21:00,0.6,-5.2,30.79,NNE,21,6.0,6.0,76,0.00,,CLR,0.00,VWS V14.01,2013-12-07 07:21:00,
2013-12-07 01:26:00,0.5,-5.3,30.79,NNE,15,3.0,3.0,76,0.00,,CLR,0.00,VWS V14.01,2013-12-07 07:26:00,
2013-12-07 01:31:00,0.4,-5.4,30.79,NNE,15,6.0,8.0,76,0.00,,CLR,0.00,VWS V14.01,2013-12-07 07:31:00,
2013-12-07 01:36:00,0.2,-5.6,30.79,NNE,26,8.0,8.0,76,0.00,,CLR,0.00,VWS V14.01,2013-12-07 07:36:00,
2013-12-07 01:41:00,0.2,-5.6,30.79,NNE,27,6.0,9.0,76,0.00,,CLR,0.00,VWS V14.01,2013-12-07 07:41:00,
2013-12-07 01:46:00,0.2,-5.6,30.79,North,9,3.0,7.0,76,0.00,,CLR,0.00,VWS V14.01,2013-12-07 07:46:00,
2013-12-07 01:51:00,0.1,-5.7,30.79,North,354,4.0,7.0,76,0.00,,CLR,0.00,VWS V14.01,2013-12-07 07:51:00,
2013-12-07 01:57:00,0.1,-5.7,30.79,North,354,2.0,10.0,76,0.00,,CLR,0.00,VWS V14.01,2013-12-07 07:57:00,
2013-12-07 02:02:00,0.1,-5.8,30.79,NNE,18,6.0,6.0,76,0.00,,CLR,0.00,VWS V14.01,2013-12-07 08:02:00,
2013-12-07 02:07:00,-0.1,-5.8,30.79,NNE,22,4.0,5.0,76,0.00,,CLR,0.00,VWS V14.01,2013-12-07 08:07:00,
2013-12-07 02:12:00,-0.1,-5.8,30.79,ENE,61,5.0,6.0,76,0.00,,CLR,0.00,VWS V14.01,2013-12-07 08:12:00,
2013-12-07 02:17:00,-0.1,-5.8,30.80,NNE,12,5.0,7.0,76,0.00,,CLR,0.00,VWS V14.01,2013-12-07 08:17:00,
2013-12-07 02:22:00,-0.2,-5.9,30.80,NNE,21,5.0,6.0,76,0.00,,CLR,0.00,VWS V14.01,2013-12-07 08:22:00,
2013-12-07 02:27:00,-0.3,-6.0,30.80,NNE,22,8.0,8.0,76,0.00,,CLR,0.00,VWS V14.01,2013-12-07 08:27:00,
2013-12-07 02:32:00,-0.3,-6.0,30.80,NE,36,5.0,6.0,76,0.00,,CLR,0.00,VWS V14.01,2013-12-07 08:32:00,
2013-12-07 02:37:00,-0.4,-6.1,30.80,North,359,5.0,7.0,76,0.00,,CLR,0.00,VWS V14.01,2013-12-07 08:37:00,
2013-12-07 02:42:00,-0.4,-6.1,30.80,NNE,27,3.0,4.0,76,0.00,,CLR,0.00,VWS V14.01,2013-12-07 08:42:00,
2013-12-07 02:47:00,-0.5,-6.2,30.81,NNE,26,4.0,5.0,76,0.00,,CLR,0.00,VWS V14.01,2013-12-07 08:47:00,
2013-12-07 02:52:00,-0.5,-6.2,30.82,NNE,33,3.0,6.0,76,0.00,,CLR,0.00,VWS V14.01,2013-12-07 08:52:00,
2013-12-07 02:57:00,-0.5,-6.5,30.82,NNE,31,2.0,4.0,75,0.00,,CLR,0.00,VWS V14.01,2013-12-07 08:57:00,
2013-12-07 03:02:00,-0.7,-6.7,30.82,NNE,25,3.0,3.0,75,0.00,,CLR,0.00,VWS V14.01,2013-12-07 09:02:00,
2013-12-07 03:07:00,-0.7,-6.4,30.82,NE,39,0.0,1.0,76,0.00,,CLR,0.00,VWS V14.01,2013-12-07 09:07:00,
2013-12-07 03:12:00,-0.7,-6.4,30.82,NNE,21,3.0,5.0,76,0.00,,CLR,0.00,VWS V14.01,2013-12-07 09:12:00,
2013-12-07 03:17:00,-0.8,-6.5,30.82,NE,39,4.0,6.0,76,0.00,,CLR,0.00,VWS V14.01,2013-12-07 09:17:00,
2013-12-07 03:22:00,-0.8,-6.5,30.83,NNE,19,4.0,4.0,76,0.00,,CLR,0.00,VWS V14.01,2013-12-07 09:22:00,
2013-12-07 03:27:00,-0.9,-6.6,30.83,North,11,1.0,3.0,76,0.00,,CLR,0.00,VWS V14.01,2013-12-07 09:27:00,
2013-12-07 03:32:00,-0.9,-6.6,30.83,North,8,2.0,4.0,76,0.00,,CLR,0.00,VWS V14.01,2013-12-07 09:32:00,
2013-12-07 03:37:00,-1.0,-6.7,30.82,North,354,3.0,4.0,76,0.00,,CLR,0.00,VWS V14.01,2013-12-07 09:37:00,
2013-12-07 03:42:00,-1.1,-6.8,30.82,NNE,21,3.0,5.0,76,0.00,,CLR,0.00,VWS V14.01,2013-12-07 09:42:00,
2013-12-07 03:47:00,-1.2,-6.7,30.82,North,10,3.0,5.0,77,0.00,,CLR,0.00,VWS V14.01,2013-12-07 09:47:00,
2013-12-07 03:52:00,-1.3,-6.8,30.82,NNE,14,3.0,6.0,77,0.00,,CLR,0.00,VWS V14.01,2013-12-07 09:52:00,
2013-12-07 03:57:00,-1.3,-6.8,30.82,North,354,3.0,5.0,77,0.00,,CLR,0.00,VWS V14.01,2013-12-07 09:57:00,
2013-12-07 04:03:00,-1.4,-6.8,30.81,NNE,26,6.0,6.0,77,0.00,,CLR,0.00,VWS V14.01,2013-12-07 10:03:00,
2013-12-07 04:08:00,-1.4,-6.8,30.81,North,8,5.0,7.0,77,0.00,,CLR,0.00,VWS V14.01,2013-12-07 10:08:00,
2013-12-07 04:13:00,-1.5,-6.9,30.81,NNE,12,6.0,7.0,77,0.00,,CLR,0.00,VWS V14.01,2013-12-07 10:13:00,
2013-12-07 04:18:00,-1.4,-6.6,30.81,NNE,21,6.0,7.0,78,0.00,,CLR,0.00,VWS V14.01,2013-12-07 10:18:00,
2013-12-07 04:23:00,-1.4,-6.8,30.81,NNE,19,4.0,7.0,77,0.00,,CLR,0.00,VWS V14.01,2013-12-07 10:23:00,
2013-12-07 04:28:00,-1.4,-6.8,30.81,NNE,31,5.0,6.0,77,0.00,,CLR,0.00,VWS V14.01,2013-12-07 10:28:00,
2013-12-07 04:33:00,-1.5,-6.7,30.81,NE,37,4.0,7.0,78,0.00,,CLR,0.00,VWS V14.01,2013-12-07 10:33:00,
2013-12-07 04:38:00,-1.6,-6.8,30.81,North,8,5.0,8.0,78,0.00,,CLR,0.00,VWS V14.01,2013-12-07 10:38:00,
2013-12-07 04:43:00,-1.6,-6.8,30.81,NNE,12,2.0,3.0,78,0.00,,CLR,0.00,VWS V14.01,2013-12-07 10:43:00,
2013-12-07 04:48:00,-1.7,-6.9,30.81,NNE,27,3.0,6.0,78,0.00,,CLR,0.00,VWS V14.01,2013-12-07 10:48:00,
2013-12-07 04:53:00,-1.7,-6.9,30.81,North,10,4.0,4.0,78,0.00,,CLR,0.00,VWS V14.01,2013-12-07 10:53:00,
2013-12-07 04:58:00,-1.8,-7.0,30.81,NNE,23,4.0,5.0,78,0.00,,CLR,0.00,VWS V14.01,2013-12-07 10:58:00,
2013-12-07 05:03:00,-1.8,-7.0,30.80,NNE,28,3.0,6.0,78,0.00,,CLR,0.00,VWS V14.01,2013-12-07 11:03:00,
2013-12-07 05:08:00,-1.8,-7.0,30.80,North,9,1.0,6.0,78,0.00,,CLR,0.00,VWS V14.01,2013-12-07 11:08:00,
2013-12-07 05:13:00,-1.9,-7.1,30.81,NNE,19,2.0,2.0,78,0.00,,CLR,0.00,VWS V14.01,2013-12-07 11:13:00,
2013-12-07 05:18:00,-1.9,-6.8,30.81,NNE,17,4.0,5.0,79,0.00,,CLR,0.00,VWS V14.01,2013-12-07 11:18:00,
2013-12-07 05:23:00,-2.0,-6.9,30.82,North,8,3.0,4.0,79,0.00,,CLR,0.00,VWS V14.01,2013-12-07 11:23:00,
2013-12-07 05:28:00,-2.1,-7.0,30.81,North,354,2.0,2.0,79,0.00,,CLR,0.00,VWS V14.01,2013-12-07 11:28:00,
2013-12-07 05:33:00,-2.1,-7.0,30.81,NNE,17,2.0,4.0,79,0.00,,CLR,0.00,VWS V14.01,2013-12-07 11:33:00,
2013-12-07 05:38:00,-2.2,-7.1,30.82,NNE,16,3.0,4.0,79,0.00,,CLR,0.00,VWS V14.01,2013-12-07 11:38:00,
2013-12-07 05:43:00,-2.2,-7.1,30.81,North,10,1.0,3.0,79,0.00,,CLR,0.00,VWS V14.01,2013-12-07 11:43:00,
2013-12-07 05:48:00,-2.2,-7.1,30.82,NNE,27,2.0,4.0,79,0.00,,CLR,0.00,VWS V14.01,2013-12-07 11:48:00,
2013-12-07 05:53:00,-2.3,-7.2,30.81,NNE,12,4.0,4.0,79,0.00,,CLR,0.00,VWS V14.01,2013-12-07 11:53:00,
2013-12-07 05:58:00,-2.3,-7.2,30.81,NNE,18,1.0,4.0,79,0.00,,CLR,0.00,VWS V14.01,2013-12-07 11:58:00,
2013-12-07 06:03:00,-2.3,-7.2,30.81,NNE,29,3.0,4.0,79,0.00,,CLR,0.00,VWS V14.01,2013-12-07 12:03:00,
2013-12-07 06:08:00,-2.4,-7.0,30.82,NNE,28,2.0,3.0,80,0.00,,CLR,0.00,VWS V14.01,2013-12-07 12:08:00,
2013-12-07 06:13:00,-2.5,-7.1,30.82,NNE,28,2.0,2.0,80,0.00,,CLR,0.00,VWS V14.01,2013-12-07 12:13:00,
2013-12-07 06:18:00,-2.5,-7.4,30.82,NNE,28,0.0,0.0,79,0.00,,CLR,0.00,VWS V14.01,2013-12-07 12:18:00,
2013-12-07 06:23:00,-2.5,-7.1,30.82,NNE,28,0.0,2.0,80,0.00,,CLR,0.00,VWS V14.01,2013-12-07 12:23:00,
2013-12-07 06:28:00,-2.6,-7.2,30.83,NNE,28,1.0,2.0,80,0.00,,CLR,0.00,VWS V14.01,2013-12-07 12:28:00,
2013-12-07 06:33:00,-2.6,-7.2,30.83,NNE,28,0.0,1.0,80,0.00,,CLR,0.00,VWS V14.01,2013-12-07 12:33:00,
2013-12-07 06:38:00,-2.6,-7.2,30.84,NNE,28,0.0,0.0,80,0.00,,CLR,0.00,VWS V14.01,2013-12-07 12:38:00,
2013-12-07 06:43:00,-2.7,-7.3,30.83,NNE,28,0.0,0.0,80,0.00,,CLR,0.00,VWS V14.01,2013-12-07 12:43:00,
2013-12-07 06:48:00,-2.7,-7.3,30.84,NNE,28,0.0,0.0,80,0.00,,CLR,0.00,VWS V14.01,2013-12-07 12:48:00,
2013-12-07 06:53:00,-2.8,-7.4,30.84,NNE,28,1.0,2.0,80,0.00,,CLR,0.00,VWS V14.01,2013-12-07 12:53:00,
2013-12-07 06:59:00,-2.8,-7.4,30.83,NNE,28,1.0,1.0,80,0.00,,CLR,0.00,VWS V14.01,2013-12-07 12:59:00,
2013-12-07 07:04:00,-2.7,-7.3,30.83,NNE,28,0.0,0.0,80,0.00,,CLR,0.00,VWS V14.01,2013-12-07 13:04:00,
2013-12-07 07:09:00,-2.8,-7.4,30.83,NNE,28,0.0,0.0,80,0.00,,CLR,0.00,VWS V14.01,2013-12-07 13:09:00,
2013-12-07 07:14:00,-2.8,-7.4,30.84,NNE,28,0.0,0.0,80,0.00,,CLR,0.00,VWS V14.01,2013-12-07 13:14:00,
2013-12-07 07:19:00,-2.8,-7.2,30.84,NNE,28,0.0,1.0,81,0.00,,CLR,0.00,VWS V14.01,2013-12-07 13:19:00,
2013-12-07 07:24:00,-2.9,-7.3,30.84,NNE,28,0.0,0.0,81,0.00,,CLR,0.00,VWS V14.01,2013-12-07 13:24:00,
2013-12-07 07:29:00,-2.9,-7.3,30.84,NNE,28,2.0,2.0,81,0.00,,CLR,0.00,VWS V14.01,2013-12-07 13:29:00,
2013-12-07 07:34:00,-3.0,-7.4,30.84,NNE,28,0.0,1.0,81,0.00,,CLR,0.00,VWS V14.01,2013-12-07 13:34:00,
2013-12-07 07:39:00,-2.9,-7.3,30.84,NNE,28,0.0,0.0,81,0.00,,CLR,0.00,VWS V14.01,2013-12-07 13:39:00,
2013-12-07 07:44:00,-2.8,-7.2,30.85,NNE,28,0.0,0.0,81,0.00,,BKN200,0.00,VWS V14.01,2013-12-07 13:44:00,
2013-12-07 07:49:00,-2.6,-7.0,30.85,NNE,28,0.0,1.0,81,0.00,,BKN200,0.00,VWS V14.01,2013-12-07 13:49:00,
2013-12-07 07:54:00,-2.4,-6.8,30.85,NNE,28,1.0,1.0,81,0.00,,BKN200,0.00,VWS V14.01,2013-12-07 13:54:00,
2013-12-07 07:59:00,-2.2,-6.6,30.85,NNE,28,0.0,2.0,81,0.00,,BKN200,0.00,VWS V14.01,2013-12-07 13:59:00,
2013-12-07 08:04:00,-1.9,-6.6,30.85,NNE,21,1.0,1.0,80,0.00,,BKN200,0.00,VWS V14.01,2013-12-07 14:04:00,
2013-12-07 08:09:00,-1.6,-6.2,30.85,NNE,21,0.0,2.0,80,0.00,,BKN200,0.00,VWS V14.01,2013-12-07 14:09:00,
2013-12-07 08:14:00,-1.4,-6.3,30.85,NNE,21,0.0,2.0,79,0.00,,BKN200,0.00,VWS V14.01,2013-12-07 14:14:00,
2013-12-07 08:19:00,-1.0,-5.9,30.85,NNE,14,1.0,3.0,79,0.00,,BKN200,0.00,VWS V14.01,2013-12-07 14:19:00,
2013-12-07 08:24:00,-0.7,-5.9,30.85,NNE,21,3.0,3.0,78,0.00,,BKN200,0.00,VWS V14.01,2013-12-07 14:24:00,
2013-12-07 08:29:00,-0.4,-5.9,30.85,NNE,21,1.0,2.0,77,0.00,,BKN200,0.00,VWS V14.01,2013-12-07 14:29:00,
2013-12-07 08:35:00,-0.1,-5.6,30.85,NNE,21,1.0,3.0,77,0.00,,BKN200,0.00,VWS V14.01,2013-12-07 14:35:00,
2013-12-07 08:40:00,0.1,-5.7,30.85,North,10,4.0,5.0,76,0.00,,BKN200,0.00,VWS V14.01,2013-12-07 14:40:00,
2013-12-07 08:45:00,0.4,-5.4,30.84,NE,34,2.0,4.0,76,0.00,,BKN200,0.00,VWS V14.01,2013-12-07 14:45:00,
2013-12-07 08:50:00,0.8,-5.0,30.85,North,9,2.0,5.0,76,0.00,,BKN200,0.00,VWS V14.01,2013-12-07 14:50:00,
2013-12-07 08:55:00,0.9,-5.2,30.85,ENE,68,1.0,2.0,75,0.00,,BKN200,0.00,VWS V14.01,2013-12-07 14:55:00,
2013-12-07 09:00:00,1.3,-4.8,30.85,North,10,4.0,4.0,75,0.00,,BKN200,0.00,VWS V14.01,2013-12-07 15:00:00,
2013-12-07 09:05:00,2.0,-4.1,30.85,NNE,31,3.0,4.0,75,0.00,,BKN200,0.00,VWS V14.01,2013-12-07 15:05:00,
2013-12-07 09:10:00,2.5,-3.9,30.86,East,83,1.0,5.0,74,0.00,,BKN200,0.00,VWS V14.01,2013-12-07 15:10:00,
2013-12-07 09:15:00,2.8,-3.9,30.85,ENE,60,2.0,3.0,73,0.00,,BKN200,0.00,VWS V14.01,2013-12-07 15:15:00,
2013-12-07 09:20:00,2.7,-4.3,30.85,ESE,102,5.0,6.0,72,0.00,,BKN200,0.00,VWS V14.01,2013-12-07 15:20:00,
2013-12-07 09:25:00,2.3,-4.6,30.85,ENE,66,4.0,5.0,72,0.00,,BKN200,0.00,VWS V14.01,2013-12-07 15:25:00,
2013-12-07 09:30:00,2.2,-4.4,30.85,East,81,2.0,5.0,73,0.00,,BKN200,0.00,VWS V14.01,2013-12-07 15:30:00,
2013-12-07 09:35:00,2.3,-4.4,30.85,ESE,109,3.0,5.0,73,0.00,,BKN200,0.00,VWS V14.01,2013-12-07 15:35:00,
2013-12-07 09:41:00,2.3,-4.4,30.85,ESE,104,1.0,2.0,73,0.00,,BKN200,0.00,VWS V14.01,2013-12-07 15:41:00,
2013-12-07 09:46:00,2.5,-3.9,30.84,ENE,66,2.0,5.0,74,0.00,,BKN200,0.00,VWS V14.01,2013-12-07 15:46:00,
2013-12-07 09:51:00,3.0,-3.1,30.85,ENE,61,2.0,4.0,75,0.00,,BKN200,0.00,VWS V14.01,2013-12-07 15:51:00,
2013-12-07 09:56:00,3.2,-3.5,30.85,ESE,121,2.0,2.0,73,0.00,,BKN200,0.00,VWS V14.01,2013-12-07 15:56:00,
2013-12-07 10:01:00,3.1,-3.6,30.85,NE,52,2.0,3.0,73,0.00,,BKN200,0.00,VWS V14.01,2013-12-07 16:01:00,
2013-12-07 10:06:00,3.0,-3.7,30.85,NE,45,0.0,4.0,73,0.00,,BKN200,0.00,VWS V14.01,2013-12-07 16:06:00,
2013-12-07 10:11:00,3.1,-3.6,30.85,East,96,0.0,1.0,73,0.00,,BKN200,0.00,VWS V14.01,2013-12-07 16:11:00,
2013-12-07 10:16:00,3.3,-3.4,30.85,NE,43,2.0,4.0,73,0.00,,BKN200,0.00,VWS V14.01,2013-12-07 16:16:00,
2013-12-07 10:21:00,3.7,-2.7,30.85,East,87,1.0,5.0,74,0.00,,BKN200,0.00,VWS V14.01,2013-12-07 16:21:00,
2013-12-07 10:26:00,3.8,-2.9,30.85,NNE,21,2.0,3.0,73,0.00,,BKN200,0.00,VWS V14.01,2013-12-07 16:26:00,
2013-12-07 10:31:00,4.1,-2.3,30.85,NNE,31,4.0,5.0,74,0.00,,BKN200,0.00,VWS V14.01,2013-12-07 16:31:00,
2013-12-07 10:36:00,4.3,-2.4,30.84,NNE,12,4.0,5.0,73,0.00,,BKN200,0.00,VWS V14.01,2013-12-07 16:36:00,
2013-12-07 10:41:00,4.4,-2.6,30.84,East,81,5.0,5.0,72,0.00,,BKN200,0.00,VWS V14.01,2013-12-07 16:41:00,
2013-12-07 10:46:00,4.7,-2.3,30.84,ENE,58,2.0,3.0,72,0.00,,BKN200,0.00,VWS V14.01,2013-12-07 16:46:00,
2013-12-07 10:51:00,5.4,-1.6,30.84,NE,38,1.0,4.0,72,0.00,,BKN200,0.00,VWS V14.01,2013-12-07 16:51:00,
2013-12-07 10:56:00,5.6,-1.8,30.84,North,354,4.0,7.0,71,0.00,,BKN200,0.00,VWS V14.01,2013-12-07 16:56:00,
2013-12-07 11:01:00,5.8,-1.9,30.84,NNE,12,3.0,5.0,70,0.00,,BKN200,0.00,VWS V14.01,2013-12-07 17:01:00,
2013-12-07 11:06:00,6.0,-2.0,30.83,NE,47,2.0,4.0,69,0.00,,BKN200,0.00,VWS V14.01,2013-12-07 17:06:00,
2013-12-07 11:11:00,6.2,-1.8,30.83,NE,48,0.0,4.0,69,0.00,,BKN200,0.00,VWS V14.01,2013-12-07 17:11:00,
2013-12-07 11:16:00,6.7,-1.3,30.82,North,11,6.0,6.0,69,0.00,,BKN200,0.00,VWS V14.01,2013-12-07 17:16:00,
2013-12-07 11:21:00,6.8,-1.5,30.82,North,8,4.0,5.0,68,0.00,,BKN200,0.00,VWS V14.01,2013-12-07 17:21:00,
2013-12-07 11:27:00,7.0,-1.0,30.81,NNE,17,2.0,6.0,69,0.00,,BKN200,0.00,VWS V14.01,2013-12-07 17:27:00,
2013-12-07 11:32:00,7.2,-1.4,30.81,ENE,70,4.0,6.0,67,0.00,,BKN200,0.00,VWS V14.01,2013-12-07 17:32:00,
2013-12-07 11:37:00,7.5,-1.1,30.80,NE,37,3.0,4.0,67,0.00,,BKN200,0.00,VWS V14.01,2013-12-07 17:37:00,
2013-12-07 11:42:00,7.8,-0.9,30.80,NNE,33,3.0,5.0,67,0.00,,BKN200,0.00,VWS V14.01,2013-12-07 17:42:00,
2013-12-07 11:47:00,8.0,-1.0,30.80,NNE,17,4.0,5.0,66,0.00,,BKN200,0.00,VWS V14.01,2013-12-07 17:47:00,
2013-12-07 11:52:00,7.9,-1.4,30.80,NNE,31,4.0,7.0,65,0.00,,BKN200,0.00,VWS V14.01,2013-12-07 17:52:00,
2013-12-07 11:57:00,8.0,-1.3,30.79,NNE,30,2.0,5.0,65,0.00,,BKN200,0.00,VWS V14.01,2013-12-07 17:57:00,
2013-12-07 12:02:00,8.2,-1.5,30.79,NNW,343,3.0,3.0,64,0.00,,BKN200,0.00,VWS V14.01,2013-12-07 18:02:00,
2013-12-07 12:07:00,8.3,-1.4,30.79,NNE,28,4.0,5.0,64,0.00,,BKN200,0.00,VWS V14.01,2013-12-07 18:07:00,
2013-12-07 12:12:00,8.5,-1.2,30.79,NE,34,4.0,5.0,64,0.00,,BKN200,0.00,VWS V14.01,2013-12-07 18:12:00,
2013-12-07 12:18:00,8.5,-1.2,30.79,East,85,5.0,5.0,64,0.00,,BKN200,0.00,VWS V14.01,2013-12-07 18:18:00,
2013-12-07 12:23:00,8.4,-1.6,30.78,East,92,0.0,2.0,63,0.00,,BKN200,0.00,VWS V14.01,2013-12-07 18:23:00,
2013-12-07 12:28:00,8.7,-1.0,30.78,SE,139,3.0,3.0,64,0.00,,BKN200,0.00,VWS V14.01,2013-12-07 18:28:00,
2013-12-07 12:33:00,8.9,-1.1,30.78,SE,146,2.0,3.0,63,0.00,,BKN200,0.00,VWS V14.01,2013-12-07 18:33:00,
2013-12-07 12:38:00,9.1,-0.9,30.78,North,8,0.0,2.0,63,0.00,,BKN200,0.00,VWS V14.01,2013-12-07 18:38:00,
2013-12-07 12:43:00,9.5,0.8,30.77,SE,131,1.0,2.0,67,0.00,,BKN200,0.00,VWS V14.01,2013-12-07 18:43:00,
2013-12-07 12:48:00,9.7,0.0,30.77,NE,51,4.0,5.0,64,0.00,,BKN200,0.00,VWS V14.01,2013-12-07 18:48:00,
2013-12-07 12:53:00,9.8,-0.9,30.76,NE,41,2.0,3.0,61,0.00,,BKN200,0.00,VWS V14.01,2013-12-07 18:53:00,
2013-12-07 12:58:00,9.9,-0.9,30.76,NE,37,4.0,4.0,61,0.00,,BKN200,0.00,VWS V14.01,2013-12-07 18:58:00,
2013-12-07 13:03:00,10.0,-1.1,30.75,East,84,0.0,1.0,60,0.00,,BKN200,0.00,VWS V14.01,2013-12-07 19:03:00,
2013-12-07 13:08:00,10.4,-0.7,30.75,NNE,23,2.0,4.0,60,0.00,,BKN200,0.00,VWS V14.01,2013-12-07 19:08:00,
2013-12-07 13:13:00,10.5,-0.6,30.75,NNE,24,2.0,2.0,60,0.00,,BKN200,0.00,VWS V14.01,2013-12-07 19:13:00,
2013-12-07 13:18:00,10.8,-0.3,30.74,North,354,1.0,6.0,60,0.00,,BKN200,0.00,VWS V14.01,2013-12-07 19:18:00,
2013-12-07 13:23:00,10.8,-0.7,30.74,NE,50,3.0,3.0,59,0.00,,BKN200,0.00,VWS V14.01,2013-12-07 19:23:00,
2013-12-07 13:28:00,11.0,-0.9,30.74,ENE,73,0.0,5.0,58,0.00,,BKN200,0.00,VWS V14.01,2013-12-07 19:28:00,
2013-12-07 13:33:00,11.3,-0.6,30.73,ENE,62,2.0,2.0,58,0.00,,BKN200,0.00,VWS V14.01,2013-12-07 19:33:00,
2013-12-07 13:38:00,11.2,-0.7,30.73,NNE,27,3.0,5.0,58,0.00,,BKN200,0.00,VWS V14.01,2013-12-07 19:38:00,
2013-12-07 13:43:00,11.2,-0.7,30.72,NNE,33,4.0,5.0,58,0.00,,BKN200,0.00,VWS V14.01,2013-12-07 19:43:00,
2013-12-07 13:49:00,11.3,-0.6,30.72,ENE,70,5.0,5.0,58,0.00,,BKN200,0.00,VWS V14.01,2013-12-07 19:49:00,
2013-12-07 13:54:00,11.6,-0.3,30.72,NE,41,1.0,4.0,58,0.00,,BKN200,0.00,VWS V14.01,2013-12-07 19:54:00,
2013-12-07 13:59:00,11.7,-1.0,30.72,ENE,77,3.0,6.0,56,0.00,,BKN200,0.00,VWS V14.01,2013-12-07 19:59:00,
2013-12-07 14:04:00,11.6,-0.7,30.71,NE,48,4.0,7.0,57,0.00,,BKN200,0.00,VWS V14.01,2013-12-07 20:04:00,
2013-12-07 14:09:00,11.6,-0.7,30.70,NNE,20,5.0,6.0,57,0.00,,BKN200,0.00,VWS V14.01,2013-12-07 20:09:00,
2013-12-07 14:14:00,11.6,-0.7,30.70,NE,43,3.0,7.0,57,0.00,,BKN200,0.00,VWS V14.01,2013-12-07 20:14:00,
2013-12-07 14:19:00,11.9,-0.4,30.70,NNE,13,6.0,6.0,57,0.00,,BKN200,0.00,VWS V14.01,2013-12-07 20:19:00,
2013-12-07 14:24:00,12.3,-0.4,30.69,North,4,3.0,8.0,56,0.00,,BKN200,0.00,VWS V14.01,2013-12-07 20:24:00,
2013-12-07 14:29:00,12.4,-0.3,30.69,SE,127,3.0,6.0,56,0.00,,BKN200,0.00,VWS V14.01,2013-12-07 20:29:00,
2013-12-07 14:34:00,12.7,-0.8,30.69,NNE,19,3.0,4.0,54,0.00,,BKN200,0.00,VWS V14.01,2013-12-07 20:34:00,
2013-12-07 14:40:00,12.9,-0.6,30.69,NE,52,5.0,8.0,54,0.00,,BKN200,0.00,VWS V14.01,2013-12-07 20:40:00,
2013-12-07 14:45:00,13.1,-0.4,30.68,East,89,5.0,6.0,54,0.00,,BKN200,0.00,VWS V14.01,2013-12-07 20:45:00,
2013-12-07 14:50:00,13.2,-0.7,30.67,NNE,14,3.0,3.0,53,0.00,,BKN200,0.00,VWS V14.01,2013-12-07 20:50:00,
2013-12-07 14:55:00,13.4,-0.5,30.67,NNE,29,3.0,4.0,53,0.00,,BKN200,0.00,VWS V14.01,2013-12-07 20:55:00,
2013-12-07 15:00:00,13.5,-0.8,30.67,NE,40,4.0,6.0,52,0.00,,BKN200,0.00,VWS V14.01,2013-12-07 21:00:00,
2013-12-07 15:05:00,13.5,-1.7,30.67,East,80,3.0,3.0,50,0.00,,BKN200,0.00,VWS V14.01,2013-12-07 21:05:00,
2013-12-07 15:10:00,13.8,-1.0,30.67,NE,41,2.0,4.0,51,0.00,,BKN200,0.00,VWS V14.01,2013-12-07 21:10:00,
2013-12-07 15:15:00,13.9,-0.9,30.67,NE,37,3.0,4.0,51,0.00,,BKN200,0.00,VWS V14.01,2013-12-07 21:15:00,
2013-12-07 15:20:00,14.0,-0.8,30.67,ENE,70,0.0,6.0,51,0.00,,BKN200,0.00,VWS V14.01,2013-12-07 21:20:00,
2013-12-07 15:25:00,14.1,-0.7,30.66,NE,50,3.0,5.0,51,0.00,,BKN200,0.00,VWS V14.01,2013-12-07 21:25:00,
2013-12-07 15:30:00,14.1,-0.7,30.66,ENE,62,1.0,3.0,51,0.00,,BKN200,0.00,VWS V14.01,2013-12-07 21:30:00,
2013-12-07 15:36:00,14.1,-0.7,30.66,ENE,77,1.0,2.0,51,0.00,,BKN200,0.00,VWS V14.01,2013-12-07 21:36:00,
2013-12-07 15:41:00,14.1,-1.1,30.65,ENE,70,2.0,6.0,50,0.00,,BKN200,0.00,VWS V14.01,2013-12-07 21:41:00,
2013-12-07 15:46:00,14.0,-1.2,30.65,ENE,58,2.0,7.0,50,0.00,,BKN200,0.00,VWS V14.01,2013-12-07 21:46:00,
2013-12-07 15:51:00,13.9,-0.9,30.64,ENE,58,4.0,7.0,51,0.00,,BKN200,0.00,VWS V14.01,2013-12-07 21:51:00,
2013-12-07 15:56:00,13.9,-0.9,30.65,ENE,66,1.0,4.0,51,0.00,,BKN200,0.00,VWS V14.01,2013-12-07 21:56:00,
2013-12-07 16:01:00,14.0,-0.8,30.64,NNE,15,3.0,4.0,51,0.00,,BKN200,0.00,VWS V14.01,2013-12-07 22:01:00,
2013-12-07 16:06:00,14.3,-0.5,30.64,East,84,0.0,5.0,51,0.00,,BKN200,0.00,VWS V14.01,2013-12-07 22:06:00,
2013-12-07 16:11:00,14.6,-0.6,30.63,NE,40,3.0,3.0,50,0.00,,BKN200,0.00,VWS V14.01,2013-12-07 22:11:00,
2013-12-07 16:16:00,14.7,-0.6,30.63,ENE,59,4.0,4.0,50,0.00,,BKN200,0.00,VWS V14.01,2013-12-07 22:16:00,
2013-12-07 16:21:00,14.5,-0.7,30.63,NE,52,1.0,3.0,50,0.00,,BKN200,0.00,VWS V14.01,2013-12-07 22:21:00,
2013-12-07 16:26:00,14.5,-0.7,30.63,SE,125,3.0,5.0,50,0.00,,BKN200,0.00,VWS V14.01,2013-12-07 22:26:00,
2013-12-07 16:31:00,14.4,-0.8,30.62,East,96,3.0,3.0,50,0.00,,BKN200,0.00,VWS V14.01,2013-12-07 22:31:00,
2013-12-07 16:36:00,14.3,-1.4,30.62,East,100,2.0,5.0,49,0.00,,BKN200,0.00,VWS V14.01,2013-12-07 22:36:00,
2013-12-07 16:41:00,14.1,-1.1,30.62,East,80,1.0,4.0,50,0.00,,BKN200,0.00,VWS V14.01,2013-12-07 22:41:00,
2013-12-07 16:46:00,14.0,-1.2,30.62,ENE,64,5.0,5.0,50,0.00,,BKN200,0.00,VWS V14.01,2013-12-07 22:46:00,
2013-12-07 16:51:00,13.8,-1.4,30.61,ENE,69,3.0,3.0,50,0.00,,BKN200,0.00,VWS V14.01,2013-12-07 22:51:00,
2013-12-07 16:56:00,13.7,-1.5,30.61,East,80,2.0,5.0,50,0.00,,BKN200,0.00,VWS V14.01,2013-12-07 22:56:00,
2013-12-07 17:01:00,13.6,-1.6,30.60,ENE,66,3.0,5.0,50,0.00,,BKN200,0.00,VWS V14.01,2013-12-07 23:01:00,
2013-12-07 17:06:00,13.5,-1.7,30.60,East,85,2.0,5.0,50,0.00,,BKN200,0.00,VWS V14.01,2013-12-07 23:06:00,
2013-12-07 17:11:00,13.3,-1.9,30.60,East,81,1.0,2.0,50,0.00,,BKN200,0.00,VWS V14.01,2013-12-07 23:11:00,
2013-12-07 17:16:00,13.2,-1.5,30.60,ENE,59,2.0,6.0,51,0.00,,BKN200,0.00,VWS V14.01,2013-12-07 23:16:00,
2013-12-07 17:21:00,13.0,-1.7,30.59,ENE,60,0.0,5.0,51,0.00,,BKN200,0.00,VWS V14.01,2013-12-07 23:21:00,
2013-12-07 17:26:00,12.9,-1.8,30.59,NE,39,3.0,3.0,51,0.00,,BKN200,0.00,VWS V14.01,2013-12-07 23:26:00,
2013-12-07 17:31:00,12.7,-1.6,30.59,NE,43,1.0,3.0,52,0.00,,BKN200,0.00,VWS V14.01,2013-12-07 23:31:00,
2013-12-07 17:36:00,12.6,-1.7,30.60,ENE,66,2.0,3.0,52,0.00,,BKN200,0.00,VWS V14.01,2013-12-07 23:36:00,
2013-12-07 17:42:00,12.5,-1.4,30.59,ENE,64,1.0,2.0,53,0.00,,BKN200,0.00,VWS V14.01,2013-12-07 23:42:00,
2013-12-07 17:47:00,12.4,-1.5,30.59,ENE,66,2.0,2.0,53,0.00,,BKN200,0.00,VWS V14.01,2013-12-07 23:47:00,
2013-12-07 17:52:00,12.3,-1.6,30.59,ENE,66,1.0,3.0,53,0.00,,BKN200,0.00,VWS V14.01,2013-12-07 23:52:00,
2013-12-07 17:57:00,12.2,-1.3,30.59,ENE,57,0.0,4.0,54,0.00,,BKN200,0.00,VWS V14.01,2013-12-07 23:57:00,
2013-12-07 18:02:00,12.1,-1.4,30.60,ENE,58,1.0,2.0,54,0.00,,BKN200,0.00,VWS V14.01,2013-12-08 00:02:00,
2013-12-07 18:07:00,11.9,-1.5,30.60,ENE,65,1.0,2.0,54,0.00,,BKN200,0.00,VWS V14.01,2013-12-08 00:07:00,
2013-12-07 18:12:00,11.9,-1.5,30.60,ENE,57,0.0,1.0,54,0.00,,BKN200,0.00,VWS V14.01,2013-12-08 00:12:00,
2013-12-07 18:17:00,11.9,-1.1,30.60,ENE,57,1.0,1.0,55,0.00,,BKN200,0.00,VWS V14.01,2013-12-08 00:17:00,
2013-12-07 18:22:00,11.8,-1.2,30.61,NE,43,0.0,2.0,55,0.00,,BKN200,0.00,VWS V14.01,2013-12-08 00:22:00,
2013-12-07 18:27:00,11.8,-1.2,30.60,NNE,33,1.0,3.0,55,0.00,,BKN200,0.00,VWS V14.01,2013-12-08 00:27:00,
2013-12-07 18:32:00,11.7,-1.0,30.60,NNE,33,0.0,1.0,56,0.00,,BKN200,0.00,VWS V14.01,2013-12-08 00:32:00,
2013-12-07 18:37:00,11.7,-1.0,30.60,NE,56,2.0,2.0,56,0.00,,BKN200,0.00,VWS V14.01,2013-12-08 00:37:00,
2013-12-07 18:42:00,11.8,-0.9,30.60,East,81,2.0,2.0,56,0.00,,BKN200,0.00,VWS V14.01,2013-12-08 00:42:00,
2013-12-07 18:47:00,11.9,-0.4,30.60,NE,56,1.0,2.0,57,0.00,,BKN200,0.00,VWS V14.01,2013-12-08 00:47:00,
2013-12-07 18:53:00,12.0,-0.3,30.59,ENE,73,0.0,2.0,57,0.00,,BKN200,0.00,VWS V14.01,2013-12-08 00:53:00,
2013-12-07 18:58:00,12.0,-0.3,30.59,NE,54,2.0,2.0,57,0.00,,BKN200,0.00,VWS V14.01,2013-12-08 00:58:00,
2013-12-07 19:03:00,12.1,-0.2,30.59,NE,39,3.0,4.0,57,0.00,,BKN200,0.00,VWS V14.01,2013-12-08 01:03:00,
2013-12-07 19:08:00,12.1,-0.2,30.59,NE,43,1.0,3.0,57,0.00,,BKN200,0.00,VWS V14.01,2013-12-08 01:08:00,
2013-12-07 19:13:00,12.2,0.3,30.59,NE,47,1.0,4.0,58,0.00,,BKN200,0.00,VWS V14.01,2013-12-08 01:13:00,
2013-12-07 19:18:00,12.4,0.1,30.59,NE,52,1.0,4.0,57,0.00,,BKN200,0.00,VWS V14.01,2013-12-08 01:18:00,
2013-12-07 19:23:00,12.5,-0.2,30.60,NE,38,2.0,4.0,56,0.00,,BKN200,0.00,VWS V14.01,2013-12-08 01:23:00,
2013-12-07 19:28:00,12.5,-0.2,30.60,ENE,62,0.0,6.0,56,0.00,,BKN200,0.00,VWS V14.01,2013-12-08 01:28:00,
2013-12-07 19:33:00,12.4,0.1,30.60,NE,56,1.0,3.0,57,0.00,,BKN200,0.00,VWS V14.01,2013-12-08 01:33:00,
2013-12-07 19:38:00,12.2,-0.1,30.60,ENE,64,3.0,3.0,57,0.00,,BKN200,0.00,VWS V14.01,2013-12-08 01:38:00,
2013-12-07 19:43:00,12.1,0.2,30.60,ENE,69,0.0,3.0,58,0.00,,BKN200,0.00,VWS V14.01,2013-12-08 01:43:00,
2013-12-07 19:48:00,12.0,0.1,30.60,ENE,74,0.0,3.0,58,0.00,,BKN200,0.00,VWS V14.01,2013-12-08 01:48:00,
2013-12-07 19:53:00,12.0,0.4,30.60,NE,50,1.0,2.0,59,0.00,,BKN200,0.00,VWS V14.01,2013-12-08 01:53:00,
2013-12-07 19:58:00,11.9,0.7,30.60,NE,39,2.0,2.0,60,0.00,,BKN200,0.00,VWS V14.01,2013-12-08 01:58:00,
2013-12-07 20:03:00,12.0,0.8,30.59,NNE,32,4.0,4.0,60,0.00,,BKN200,0.00,VWS V14.01,2013-12-08 02:03:00,
2013-12-07 20:08:00,12.2,1.0,30.60,NE,41,2.0,3.0,60,0.00,,BKN200,0.00,VWS V14.01,2013-12-08 02:08:00,
2013-12-07 20:13:00,12.3,1.1,30.60,NE,53,3.0,3.0,60,0.00,,BKN200,0.00,VWS V14.01,2013-12-08 02:13:00,
2013-12-07 20:19:00,12.5,1.3,30.60,ENE,60,3.0,4.0,60,0.00,,BKN200,0.00,VWS V14.01,2013-12-08 02:19:00,
2013-12-07 20:24:00,12.6,1.4,30.60,NE,41,4.0,4.0,60,0.00,,BKN200,0.00,VWS V14.01,2013-12-08 02:24:00,
2013-12-07 20:29:00,12.7,1.5,30.60,NE,49,0.0,3.0,60,0.00,,BKN200,0.00,VWS V14.01,2013-12-08 02:29:00,
2013-12-07 20:34:00,12.9,1.6,30.60,NE,35,2.0,3.0,60,0.00,,BKN200,0.00,VWS V14.01,2013-12-08 02:34:00,
2013-12-07 20:39:00,13.0,1.7,30.60,NE,47,2.0,3.0,60,0.00,,BKN200,0.00,VWS V14.01,2013-12-08 02:39:00,
2013-12-07 20:44:00,13.1,1.8,30.60,NE,48,3.0,3.0,60,0.00,,OVC070,0.00,VWS V14.01,2013-12-08 02:44:00,
2013-12-07 20:49:00,13.1,1.8,30.60,ENE,75,1.0,2.0,60,0.00,,OVC070,0.00,VWS V14.01,2013-12-08 02:49:00,
2013-12-07 20:54:00,13.3,1.7,30.60,East,93,5.0,5.0,59,0.00,,OVC070,0.00,VWS V14.01,2013-12-08 02:54:00,
2013-12-07 20:59:00,13.5,1.9,30.59,East,89,0.0,3.0,59,0.00,,OVC070,0.00,VWS V14.01,2013-12-08 02:59:00,
2013-12-07 21:04:00,13.5,1.5,30.59,ENE,77,5.0,7.0,58,0.00,,OVC070,0.00,VWS V14.01,2013-12-08 03:04:00,
2013-12-07 21:09:00,13.5,1.5,30.59,ENE,72,1.0,7.0,58,0.00,,OVC070,0.00,VWS V14.01,2013-12-08 03:09:00,
2013-12-07 21:15:00,13.6,1.6,30.59,East,82,2.0,7.0,58,0.00,,OVC070,0.00,VWS V14.01,2013-12-08 03:15:00,
2013-12-07 21:20:00,13.6,2.0,30.59,ENE,69,3.0,7.0,59,0.00,,OVC070,0.00,VWS V14.01,2013-12-08 03:20:00,
2013-12-07 21:25:00,13.7,2.0,30.58,ENE,78,7.0,7.0,59,0.00,,OVC070,0.00,VWS V14.01,2013-12-08 03:25:00,
2013-12-07 21:30:00,13.7,2.0,30.58,ENE,58,3.0,4.0,59,0.00,,OVC070,0.00,VWS V14.01,2013-12-08 03:30:00,
2013-12-07 21:35:00,13.7,2.0,30.58,ENE,73,2.0,2.0,59,0.00,,OVC070,0.00,VWS V14.01,2013-12-08 03:35:00,
2013-12-07 21:40:00,13.8,2.1,30.58,NE,43,2.0,6.0,59,0.00,,OVC070,0.00,VWS V14.01,2013-12-08 03:40:00,
2013-12-07 21:45:00,13.9,2.2,30.57,ENE,75,3.0,4.0,59,0.00,,OVC060,0.00,VWS V14.01,2013-12-08 03:45:00,
2013-12-07 21:50:00,13.9,2.2,30.57,ENE,62,5.0,8.0,59,0.00,,OVC060,0.00,VWS V14.01,2013-12-08 03:50:00,
2013-12-07 21:55:00,14.0,2.3,30.57,ENE,69,3.0,6.0,59,0.00,,OVC060,0.00,VWS V14.01,2013-12-08 03:55:00,
2013-12-07 22:00:00,14.1,2.0,30.56,East,95,5.0,9.0,58,0.00,,OVC060,0.00,VWS V14.01,2013-12-08 04:00:00,
2013-12-07 22:05:00,14.1,2.0,30.56,East,81,2.0,10.0,58,0.00,,OVC060,0.00,VWS V14.01,2013-12-08 04:05:00,
2013-12-07 22:10:00,14.1,2.0,30.56,East,91,0.0,11.0,58,0.00,,OVC060,0.00,VWS V14.01,2013-12-08 04:10:00,
2013-12-07 22:15:00,14.0,2.0,30.56,NNE,30,2.0,7.0,58,0.00,,OVC060,0.00,VWS V14.01,2013-12-08 04:15:00,
2013-12-07 22:20:00,14.0,2.0,30.55,East,85,3.0,4.0,58,0.00,,OVC060,0.00,VWS V14.01,2013-12-08 04:20:00,
2013-12-07 22:25:00,14.0,2.0,30.55,ENE,60,4.0,8.0,58,0.00,,OVC060,0.00,VWS V14.01,2013-12-08 04:25:00,
2013-12-07 22:30:00,14.0,2.0,30.55,ESE,110,5.0,10.0,58,0.00,,OVC060,0.00,VWS V14.01,2013-12-08 04:30:00,
2013-12-07 22:35:00,13.9,1.9,30.55,ENE,61,4.0,8.0,58,0.00,,OVC060,0.00,VWS V14.01,2013-12-08 04:35:00,
2013-12-07 22:41:00,13.9,1.5,30.54,NE,54,3.0,7.0,57,0.00,,OVC060,0.00,VWS V14.01,2013-12-08 04:41:00,
2013-12-07 22:46:00,13.9,1.9,30.54,ESE,103,7.0,10.0,58,0.00,,OVC060,0.00,VWS V14.01,2013-12-08 04:46:00,
2013-12-07 22:51:00,13.9,1.9,30.54,ENE,69,3.0,5.0,58,0.00,,OVC050,0.00,VWS V14.01,2013-12-08 04:51:00,
2013-12-07 22:56:00,13.9,1.9,30.54,ENE,67,5.0,8.0,58,0.00,,OVC050,0.00,VWS V14.01,2013-12-08 04:56:00,
2013-12-07 23:01:00,13.8,1.8,30.53,ENE,58,1.0,7.0,58,0.00,,OVC050,0.00,VWS V14.01,2013-12-08 05:01:00,
2013-12-07 23:02:00,13.8,1.8,30.53,ENE,69,5.0,10.0,58,0.00,,OVC050,0.00,VWS V14.01,2013-12-08 05:02:00,
2013-12-07 23:03:00,13.8,1.8,30.53,NE,56,5.0,8.0,58,0.00,,OVC050,0.00,VWS V14.01,2013-12-08 05:03:00,
2013-12-07 23:08:00,13.8,1.8,30.53,NE,48,3.0,10.0,58,0.00,,OVC050,0.00,VWS V14.01,2013-12-08 05:08:00,
2013-12-07 23:13:00,13.8,1.8,30.52,NE,41,4.0,7.0,58,0.00,,OVC050,0.00,VWS V14.01,2013-12-08 05:13:00,
2013-12-07 23:18:00,13.7,1.7,30.52,East,95,5.0,8.0,58,0.00,,OVC050,0.00,VWS V14.01,2013-12-08 05:18:00,
2013-12-07 23:23:00,13.7,1.7,30.52,East,79,11.0,11.0,58,0.00,,OVC050,0.00,VWS V14.01,2013-12-08 05:23:00,
2013-12-07 23:28:00,13.7,1.7,30.51,ENE,72,2.0,6.0,58,0.00,,OVC050,0.00,VWS V14.01,2013-12-08 05:28:00,
2013-12-07 23:33:00,13.7,2.0,30.52,East,94,2.0,6.0,59,0.00,,OVC050,0.00,VWS V14.01,2013-12-08 05:33:00,
2013-12-07 23:38:00,13.7,1.7,30.51,East,85,8.0,10.0,58,0.00,,OVC050,0.00,VWS V14.01,2013-12-08 05:38:00,
2013-12-07 23:43:00,13.7,1.7,30.51,ENE,71,2.0,6.0,58,0.00,,,0.00,VWS V14.01,2013-12-08 05:43:00,
2013-12-07 23:48:00,13.7,2.0,30.51,East,99,6.0,9.0,59,0.00,,,0.00,VWS V14.01,2013-12-08 05:48:00,
2013-12-07 23:53:00,13.6,1.6,30.51,ENE,73,5.0,9.0,58,0.00,,,0.00,VWS V14.01,2013-12-08 05:53:00,
2013-12-07 23:58:00,13.6,1.6,30.50,East,97,8.0,10.0,58,0.00,,,0.00,VWS V14.01,2013-12-08 05:58:00,